Dewpoint
14 13 13 13 11 11 11 11 11 11 11 12 11 10 9 6 2 -1 -2 -3 -5 -8 -11 -13 -12 -8 -5 -3 -4 -3 -2 1 1 3 4 6 7 6 7 8 8 7 7
13 13 13 13 12 12 11 11 11 11 11 11 10 7 3 -0 -1 -2 -4 -5 -8 -15 -14 -14 -13 -10 -6 -4 -3 -2 -1 2 3 3 3 4 6 7 7 8 9 8 6
13 13 13 13 13 12 12 11 11 11 10 8 5 1 -1 -2 -2 -5 -5 -6 -13 -13 -12 -12 -12 -12 -12 -13 -12 -6 1 4 5 5 5 5 6 7 8 7 8 8 8
13 14 14 14 13 12 11 11 10 10 7 3 1 -2 -5 -3 -5 -6 -6 -10 -12 -12 -12 -13 -13 -13 -12 -12 -13 -11 -7 -0 5 6 6 7 7 7 8 8 7 8 8
13 14 13 13 12 11 11 9 8 5 2 -0 -3 -6 -5 -4 -8 -7 -9 -12 -12 -11 -11 -10 -10 -11 -12 -13 -13 -14 -13 -11 -5 2 7 7 8 8 8 8 7 7 7
13 13 13 12 11 10 9 7 2 1 -0 -3 -8 -7 -5 -10 -11 -11 -12 -12 -9 -5 -2 -2 -2 -4 -7 -10 -10 -9 -8 -12 -12 -8 2 7 8 8 8 6 7 7 6
13 13 12 11 10 7 5 2 1 -0 -2 -7 -10 -7 -9 -11 -10 -9 -3 -0 -1 -2 -3 -5 -4 -4 -4 -4 -5 -6 -6 -6 -5 -6 -7 4 7 7 5 6 8 6 7
12 12 11 9 4 3 3 1 -0 -2 -5 -11 -7 -7 -6 -5 -3 -2 -3 -4 -4 -5 -6 -6 -6 -6 -6 -6 -7 -8 -8 -6 -4 -1 1 4 5 4 4 5 5 6 9
11 8 4 4 3 2 -0 -1 -2 -5 -8 -9 -7 -1 -1 -1 -2 -2 -4 -4 -4 -4 -3 -4 -4 -4 -3 -3 -4 -5 -7 -8 -8 -7 -4 -0 1 4 4 6 5 4 3
6 3 2 -1 -3 -3 -2 -4 -9 -11 -11 -7 1 -0 1 0 -2 -3 -4 -3 -2 -2 -2 -1 -1 -0 -0 -2 -3 -3 -2 -2 -3 -5 -6 -8 -6 -2 1 3 3 2 -1
0 -3 -6 -9 -9 -6 -7 -11 -12 -11 -7 -0 -1 -0 -1 -1 -3 -4 -4 -3 -2 -1 0 1 1 2 2 2 -1 -1 -2 -2 -1 -1 -3 -0 -0 -4 -5 -5 -4 -5 -6
-6 -5 -3 -7 -14 -13 -13 -7 -5 -4 -3 -2 -1 0 -1 -3 -4 -4 -3 -2 -1 1 1 1 0 1 1 1 0 -0 -0 -0 1 2 1 0 1 2 1 0 -2 -5 -7
-5 -1 -1 -2 -3 -6 -3 -0 -1 0 -2 1 -2 -1 -2 -3 -4 -3 -2 -2 -1 -1 -2 -2 -2 -2 -2 -2 -2 -2 -2 -2 -1 2 2 3 3 2 2 1 1 -1 -2
1 2 2 -3 1 4 4 4 3 3 3 4 2 -4 -4 -3 -2 -0 -0 -1 -0 -1 -1 -1 -2 -2 -2 -2 -2 -1 -1 -0 0 2 3 3 4 3 2 -0 0 1 -0
3 3 4 -1 0 3 5 7 6 7 7 6 6 2 -0 1 3 3 2 2 3 2 1 -0 -1 -1 -1 -1 -1 -1 -0 2 2 2 2 3 3 1 -1 -3 0 1 0
5 6 6 5 4 7 8 8 8 8 8 8 8 5 5 4 4 5 5 5 4 3 2 0 -0 -0 -0 -0 -0 0 1 1 1 1 1 0 1 2 2 1 1 1 1
5 7 8 8 6 8 7 8 8 8 9 8 7 6 6 6 5 6 6 5 4 2 -0 -0 -1 -0 -0 -0 -1 -1 -1 -1 -1 -2 -3 -4 -2 -2 -0 2 2 -0 0
7 8 8 8 7 8 8 7 8 5 8 8 7 7 7 6 6 5 4 3 0 -1 -1 -2 -0 -0 -1 -1 -1 -1 -1 -2 -4 -7 -7 -8 -9 -10 -8 -4 -2 -0 1
7 9 8 8 8 8 8 8 8 8 7 7 7 6 5 4 2 1 -0 0 1 -2 -3 -2 -1 -1 -2 -2 -2 -2 -2 -4 -6 -7 -7 -9 -11 -10 -9 -8 -6 -5 -3
4 6 8 8 8 9 8 8 8 6 5 5 5 3 1 -0 -0 0 1 -1 -3 -2 -3 -2 -2 -2 -4 -6 -7 -7 -7 -7 -8 -7 -9 -8 -5 -4 -4 -4 -3 -1 -2
7 8 8 9 8 9 8 6 6 7 5 2 -0 -0 -0 0 -0 -2 -3 -2 -2 -2 -2 -3 -4 -6 -6 -7 -8 -7 -7 -9 -9 -13 -7 -5 -9 -6 -5 -5 -4 -4 -4
10 9 8 7 7 7 6 7 3 -0 -1 -1 -2 -1 0 -1 -1 -1 -2 -2 -2 -3 -3 -3 -3 -7 -12 -16 -17 -17 -10 -12 -10 -9 -18 -10 -7 -9 -5 -7 -10 -11 -11
4 4 3 3 4 3 1 -2 -1 -0 -1 -1 -1 -1 -1 -1 -1 -1 -1 -1 -2 -1 -1 -3 -6 -10 -10 -12 -16 -8 -5 -6 -5 -8 -13 -13 -8 -6 -10 -7 -8 -10 -11
-1 -1 -1 -1 0 1 0 0 1 1 1 0 -0 -1 -1 -1 -1 -1 -1 -2 -2 -1 -4 -7 -7 -8 -8 -12 -11 -6 -3 -2 -2 -3 -4 -4 -5 -6 -8 -8 -9 -11 -10
0 1 1 1 1 1 1 2 1 2 1 1 -0 -1 -1 -1 -3 -4 -7 -3 -3 -3 -4 -5 -5 -6 -11 -11 -11 -11 -11 -9 -7 -3 -3 -4 -4 -6 -5 -8 -8 -7 -6
1 2 2 2 2 2 2 2 2 1 1 -0 -1 -2 -1 -3 -4 -6 -4 -3 -3 -3 -8 -10 -13 -15 -16 -14 -13 -13 -14 -12 -10 -7 -6 -6 -6 -8 -6 -7 -8 -7 -5
Wind_Speed
25 23 22 20 18 17 15 14 14 13 13 12 12 12 11 9 9 9 10 11 11 11 11 10 9 7 5 4 3 3 5 8 9 10 7 4 5 7 9 9 9 10 10
25 24 22 20 18 16 15 13 12 12 11 11 11 11 10 11 11 12 12 13 14 14 15 15 14 13 10 9 7 6 5 6 7 8 9 9 6 7 9 9 10 9 11
25 24 22 19 17 15 13 12 11 11 10 11 10 10 11 11 11 12 13 13 14 14 15 14 13 12 11 10 9 6 5 4 5 6 8 9 9 9 7 10 10 13 15
25 24 21 18 16 15 13 11 10 11 10 10 9 9 10 10 11 12 13 13 13 14 14 13 12 11 10 9 8 8 7 6 5 5 5 7 8 7 10 9 10 12 11
23 21 18 17 15 13 12 11 11 11 10 10 9 9 10 10 11 13 13 12 12 11 11 10 10 10 9 9 9 8 8 8 7 5 5 6 6 6 7 10 14 11 10
21 19 17 15 13 12 12 12 12 10 9 9 8 9 9 10 12 13 12 11 10 10 11 11 10 9 8 9 9 10 10 12 11 9 6 5 6 7 10 11 14 9 13
21 18 16 14 13 12 12 11 10 9 8 8 8 10 10 11 12 12 12 13 12 13 14 14 15 15 13 13 13 13 12 12 13 12 10 6 5 7 9 9 12 9 7
19 17 15 13 12 12 11 10 9 8 7 7 10 11 12 12 12 12 12 12 13 13 15 17 18 17 16 15 16 17 15 14 14 13 11 10 10 9 8 10 10 9 8
18 17 15 14 12 11 10 9 9 8 7 10 11 12 13 13 12 12 13 13 13 13 14 16 18 18 18 17 16 16 16 16 16 15 14 13 13 13 12 10 12 11 12
18 16 14 11 11 11 11 10 9 9 10 11 12 12 13 12 11 11 11 12 12 12 13 14 16 17 18 18 17 16 16 16 15 16 16 14 13 13 13 14 13 15 15
18 15 13 12 12 12 12 11 11 11 12 12 12 11 10 10 10 10 10 10 10 10 11 12 13 15 16 17 16 15 14 14 15 15 15 15 16 15 13 14 16 15 16
18 15 14 12 12 13 12 11 11 11 11 9 9 9 9 8 8 9 8 8 8 7 8 10 12 15 16 18 19 17 17 16 13 13 13 14 13 14 15 16 17 17 16
15 15 14 12 12 12 12 11 11 9 9 7 8 7 6 5 5 6 4 4 5 7 10 13 15 18 19 21 22 22 24 23 17 13 12 11 12 14 15 16 17 18 19
18 14 13 12 12 12 12 10 8 7 7 4 4 4 3 2 3 1 1 4 7 10 12 15 16 20 22 23 21 24 29 24 20 19 18 17 14 14 14 15 15 17 19
16 15 13 12 12 11 11 10 7 5 4 4 2 3 3 1 2 4 6 8 9 10 11 13 17 22 23 22 24 26 25 21 16 15 15 15 16 17 18 18 17 18 20
16 14 13 11 12 11 8 8 6 6 6 6 6 5 5 4 6 7 8 8 8 11 13 16 24 24 20 21 23 19 16 18 19 18 17 16 18 19 19 21 22 22 21
16 18 17 15 13 11 9 8 7 7 13 11 9 9 8 8 8 8 8 8 12 15 17 25 27 20 19 19 18 16 17 18 20 23 23 22 20 20 21 20 22 25 26
23 22 19 16 18 10 2 11 7 10 18 12 11 12 9 9 9 8 10 14 17 21 26 25 22 19 18 18 17 19 21 21 22 25 26 27 26 26 25 23 24 25 24
26 27 22 17 19 19 17 15 13 13 9 8 9 8 9 8 9 12 15 21 31 28 26 24 20 19 19 19 20 20 21 22 25 28 28 27 27 24 25 26 26 25 26
26 25 24 16 17 13 13 10 7 7 6 2 7 6 8 13 15 19 28 23 22 26 25 23 21 20 22 24 25 27 28 27 24 20 24 24 21 23 24 25 26 24 24
14 18 18 12 3 4 5 7 5 3 8 6 5 13 17 15 18 22 22 23 24 25 22 20 19 21 24 29 32 34 34 26 19 26 20 23 30 27 26 27 29 31 31
9 8 6 6 4 3 3 1 7 8 9 10 14 16 17 19 22 23 23 24 22 20 20 23 24 26 26 27 28 28 13 24 12 15 30 25 28 33 28 30 34 36 38
15 17 16 14 11 6 6 7 8 9 10 13 15 17 18 20 20 20 22 23 24 26 30 32 28 26 28 27 25 19 12 10 28 25 27 29 24 29 35 31 31 30 31
16 15 12 11 8 5 4 6 8 10 12 15 17 19 20 19 19 21 24 28 34 36 28 22 25 28 29 29 23 20 16 18 18 23 16 23 31 31 33 35 35 31 26
14 11 8 6 2 3 6 8 10 13 14 15 17 19 20 20 28 30 32 31 26 19 19 19 22 26 27 24 24 24 25 22 18 17 24 26 28 30 31 28 26 26 18
10 8 4 2 2 5 7 9 11 12 11 12 14 17 19 22 24 29 27 25 21 14 15 20 23 21 20 20 20 18 17 17 19 16 20 23 24 28 23 19 17 20 21
Wind_Direction
161 156 157 163 159 152 148 146 141 138 130 118 117 117 114 109 96 81 65 54 48 46 46 39 29 22 27 19 355 320 302 298 302 305 308 299 310 326 332 342 347 345 342
158 157 160 166 157 152 151 145 139 131 121 115 111 104 96 83 73 63 54 53 56 56 54 52 51 49 49 44 32 11 343 314 298 296 300 305 295 298 320 331 335 335 337
162 160 164 165 161 157 151 142 139 129 119 110 103 91 79 73 68 62 64 65 67 64 58 54 50 47 44 48 47 40 17 346 331 310 290 285 295 310 328 332 320 321 318
166 164 163 163 162 156 150 145 139 126 119 111 96 82 73 76 69 71 72 70 67 62 55 50 44 42 37 34 30 17 12 356 343 336 316 284 276 295 311 306 320 311 312
165 160 159 160 157 154 152 149 135 130 121 102 90 78 80 79 75 76 77 74 65 55 47 38 32 28 22 20 12 3 357 349 345 334 322 318 294 281 299 310 311 323 307
157 157 159 159 158 159 152 139 133 124 111 102 87 90 93 88 84 82 78 69 60 50 42 35 30 23 18 12 3 352 349 339 341 337 328 314 303 297 310 325 327 315 294
157 157 158 160 161 153 148 136 126 123 114 101 98 102 95 90 87 81 70 63 55 52 47 44 42 36 32 29 14 357 350 343 333 335 333 329 302 300 305 325 341 348 318
156 156 155 158 159 150 139 137 129 127 122 116 116 105 103 103 96 88 80 68 67 58 61 51 44 41 35 30 23 15 9 358 353 349 345 341 324 316 306 311 329 327 311
158 159 161 163 156 150 146 142 139 136 136 126 119 117 114 111 98 89 80 76 72 68 66 57 50 47 41 30 23 18 18 16 7 356 346 335 327 317 309 300 309 322 319
164 164 164 159 159 159 157 147 143 144 137 134 133 126 121 112 97 90 82 78 70 66 61 49 45 39 37 32 27 20 14 16 13 11 6 356 346 343 321 314 311 310 311
166 164 158 158 160 157 155 152 149 146 141 143 138 133 125 114 96 86 78 75 71 62 52 42 35 28 22 18 13 7 4 360 359 360 3 10 11 359 348 337 329 327 324
165 165 158 155 156 155 153 148 147 145 147 143 145 143 130 112 102 94 79 69 61 45 37 22 13 8 2 357 353 348 343 342 336 337 347 351 354 355 355 354 346 333 325
164 172 159 159 154 153 157 153 153 154 158 146 147 146 132 115 108 95 83 52 28 7 5 360 355 352 348 342 337 337 335 330 321 313 309 314 324 333 333 336 338 336 338
180 172 167 168 169 163 168 169 165 163 167 150 141 129 138 127 105 88 341 348 348 351 350 347 344 341 334 324 321 325 328 321 318 310 304 297 287 292 302 308 311 314 322
183 179 181 181 187 187 187 191 190 194 193 194 218 197 167 211 299 299 306 321 325 325 329 329 329 325 320 315 315 322 321 317 315 308 306 298 286 284 289 291 286 290 291
197 197 196 198 196 203 216 225 226 232 241 236 234 227 237 260 274 285 288 291 286 302 307 315 321 322 317 320 324 318 308 308 309 311 308 300 295 293 289 288 287 283 280
213 214 211 206 204 216 230 245 270 286 247 245 243 256 269 266 276 264 259 266 290 295 308 316 318 315 315 316 314 310 306 304 303 304 308 309 305 299 292 288 284 285 279
226 228 222 218 211 199 35 284 237 279 252 235 241 254 267 276 269 259 278 294 301 307 314 320 314 309 306 301 299 298 302 304 305 307 309 309 308 303 299 295 287 280 277
233 233 230 234 207 212 262 253 247 233 241 234 245 263 278 284 282 291 305 315 310 314 322 318 309 306 305 303 300 294 294 298 305 308 309 309 305 301 296 294 290 286 283
231 232 235 231 214 224 222 250 204 183 175 245 301 288 297 301 299 313 306 304 316 319 317 309 303 304 307 307 306 304 304 306 308 298 302 298 298 299 297 293 289 287 283
218 224 224 231 266 198 209 167 138 345 326 309 294 309 306 303 307 310 306 311 309 308 306 305 307 309 311 314 317 311 309 308 290 292 287 296 300 300 297 295 294 292 288
115 106 83 72 94 109 141 93 360 0 344 321 315 304 298 303 311 310 304 302 300 303 313 316 317 321 326 329 328 328 320 313 292 276 301 303 300 300 299 300 299 296 293
79 79 81 87 89 88 81 51 14 352 323 303 292 292 295 294 293 293 294 297 304 315 320 318 316 319 323 326 322 323 317 295 305 306 297 298 295 297 302 308 305 305 302
99 95 92 94 88 69 13 329 323 309 293 288 286 287 290 292 299 305 310 314 314 310 311 308 319 325 324 322 317 310 296 294 307 308 299 288 300 298 299 302 307 303 301
123 120 127 130 116 326 314 312 308 310 298 294 298 302 303 318 323 324 319 317 320 311 301 310 323 319 319 319 317 315 311 310 308 286 299 308 306 308 308 308 309 302 289
143 140 156 175 262 311 311 308 312 315 322 336 338 329 317 322 322 326 320 311 308 298 318 331 322 321 325 327 326 320 318 322 317 317 310 307 310 309 322 326 314 323 311
Height
1545 1548 1551 1554 1556 1558 1561 1563 1563 1566 1568 1569 1570 1570 1570 1570 1569 1569 1569 1568 1568 1566 1565 1566 1565 1565 1564 1563 1563 1562 1562 1561 1560 1561 1559 1560 1560 1559 1558 1558 1559 1558 1559
1545 1548 1550 1553 1557 1558 1561 1563 1565 1566 1568 1570 1572 1571 1571 1570 1569 1569 1569 1568 1567 1567 1566 1566 1566 1565 1564 1564 1563 1563 1561 1562 1560 1559 1559 1559 1560 1561 1559 1560 1559 1560 1560
1546 1549 1550 1554 1557 1558 1561 1562 1566 1567 1568 1569 1571 1571 1570 1570 1569 1569 1569 1568 1568 1567 1567 1566 1566 1566 1566 1563 1562 1563 1561 1562 1559 1559 1559 1559 1560 1560 1561 1559 1559 1559 1558
1547 1549 1552 1555 1557 1559 1561 1563 1566 1567 1568 1569 1571 1572 1570 1571 1570 1569 1569 1569 1569 1569 1568 1568 1568 1567 1567 1565 1563 1564 1561 1561 1560 1559 1558 1558 1559 1559 1559 1558 1559 1558 1557
1548 1551 1553 1556 1558 1560 1561 1562 1564 1567 1569 1569 1571 1571 1571 1572 1571 1570 1569 1570 1570 1569 1569 1569 1569 1569 1569 1566 1565 1564 1562 1562 1560 1559 1558 1557 1557 1557 1558 1556 1556 1557 1556
1549 1552 1556 1557 1559 1560 1561 1563 1564 1567 1569 1570 1570 1571 1571 1571 1570 1571 1571 1570 1569 1568 1568 1569 1569 1568 1568 1566 1565 1565 1563 1562 1560 1559 1558 1558 1557 1556 1556 1555 1555 1554 1553
1551 1554 1557 1559 1560 1560 1562 1563 1564 1568 1569 1570 1571 1572 1571 1572 1572 1572 1572 1573 1571 1569 1569 1569 1567 1568 1568 1565 1566 1565 1563 1562 1560 1560 1559 1558 1557 1557 1556 1555 1554 1553 1553
1552 1555 1558 1559 1561 1561 1562 1564 1565 1568 1570 1571 1572 1572 1571 1572 1571 1571 1572 1573 1572 1572 1572 1572 1570 1568 1568 1567 1566 1565 1564 1562 1560 1559 1559 1558 1558 1556 1555 1554 1554 1554 1554
1553 1556 1557 1560 1561 1561 1563 1564 1566 1567 1570 1571 1572 1573 1573 1573 1573 1573 1572 1574 1573 1573 1574 1572 1573 1571 1569 1569 1567 1566 1565 1563 1561 1560 1559 1558 1558 1556 1555 1554 1552 1552 1552
1554 1556 1558 1560 1561 1562 1564 1564 1565 1567 1569 1571 1572 1572 1573 1574 1573 1572 1574 1574 1574 1574 1573 1574 1572 1573 1570 1569 1568 1567 1565 1564 1562 1560 1558 1557 1557 1556 1554 1553 1552 1550 1549
1554 1556 1557 1559 1561 1563 1563 1563 1565 1567 1569 1570 1570 1573 1575 1573 1572 1573 1574 1574 1573 1574 1574 1573 1571 1570 1570 1569 1568 1568 1566 1564 1562 1561 1559 1557 1556 1555 1553 1552 1550 1549 1547
1553 1555 1557 1559 1561 1562 1563 1564 1567 1568 1570 1573 1572 1574 1573 1573 1573 1571 1574 1573 1573 1574 1572 1572 1570 1569 1568 1567 1567 1566 1564 1562 1561 1560 1558 1557 1555 1554 1552 1551 1549 1547 1545
1553 1556 1558 1560 1560 1562 1564 1566 1567 1569 1570 1572 1573 1573 1573 1574 1573 1572 1572 1573 1571 1573 1572 1571 1570 1568 1567 1566 1566 1564 1562 1560 1558 1557 1556 1555 1553 1552 1550 1549 1548 1547 1545
1552 1555 1557 1559 1561 1562 1565 1567 1568 1570 1572 1573 1575 1573 1574 1574 1572 1572 1572 1572 1573 1572 1571 1571 1570 1568 1566 1565 1563 1561 1559 1557 1555 1553 1552 1552 1550 1548 1547 1545 1544 1544 1544
1553 1555 1557 1560 1562 1563 1566 1569 1569 1573 1574 1574 1576 1574 1573 1573 1572 1572 1572 1572 1572 1571 1570 1569 1568 1566 1565 1563 1561 1559 1557 1554 1552 1550 1548 1548 1546 1545 1544 1542 1541 1540 1539
1555 1557 1559 1561 1563 1566 1571 1572 1573 1574 1574 1573 1574 1573 1572 1572 1572 1572 1571 1571 1571 1569 1568 1566 1565 1563 1560 1559 1558 1557 1555 1552 1549 1547 1546 1545 1543 1541 1540 1539 1538 1537 1536
1555 1557 1560 1562 1564 1566 1569 1571 1573 1573 1571 1572 1572 1572 1572 1571 1570 1570 1569 1569 1567 1566 1564 1563 1561 1558 1557 1555 1554 1553 1551 1549 1545 1543 1541 1540 1539 1537 1536 1534 1533 1532 1531
1554 1556 1559 1562 1563 1565 1566 1571 1572 1570 1571 1569 1568 1568 1569 1567 1568 1568 1567 1567 1565 1563 1561 1558 1557 1554 1552 1549 1548 1547 1546 1545 1541 1538 1536 1534 1533 1532 1531 1530 1528 1526 1526
1552 1554 1557 1559 1560 1560 1566 1569 1567 1567 1568 1568 1568 1568 1568 1567 1568 1567 1566 1564 1563 1559 1557 1555 1552 1550 1547 1544 1544 1542 1542 1540 1537 1534 1531 1529 1527 1526 1525 1523 1522 1521 1519
1550 1552 1556 1558 1561 1564 1566 1565 1566 1569 1569 1570 1570 1569 1568 1567 1566 1565 1563 1560 1558 1556 1554 1551 1549 1547 1543 1539 1538 1536 1535 1534 1531 1528 1526 1524 1522 1521 1519 1518 1516 1514 1513
1549 1552 1556 1558 1561 1563 1565 1566 1568 1569 1570 1568 1569 1568 1566 1564 1562 1560 1558 1556 1554 1551 1548 1545 1544 1542 1539 1535 1531 1529 1528 1527 1526 1523 1521 1519 1517 1515 1514 1511 1509 1507 1506
1552 1554 1556 1559 1561 1564 1565 1568 1568 1568 1568 1568 1566 1564 1562 1560 1558 1555 1553 1551 1549 1546 1544 1541 1538 1536 1533 1530 1528 1525 1521 1519 1519 1518 1515 1513 1511 1509 1507 1506 1503 1501 1498
1554 1556 1558 1560 1563 1565 1566 1566 1566 1567 1566 1565 1563 1561 1558 1556 1553 1552 1550 1547 1544 1541 1539 1536 1533 1530 1528 1526 1525 1525 1520 1516 1512 1511 1509 1507 1504 1502 1501 1499 1497 1494 1491
1558 1560 1562 1562 1563 1564 1565 1565 1565 1564 1563 1561 1559 1556 1554 1552 1551 1549 1546 1544 1541 1537 1534 1530 1528 1526 1524 1522 1521 1520 1519 1515 1511 1504 1503 1501 1499 1497 1494 1492 1490 1488 1485
1557 1558 1562 1562 1563 1563 1563 1563 1561 1560 1559 1557 1555 1553 1552 1551 1548 1546 1543 1539 1535 1532 1530 1528 1524 1522 1520 1519 1516 1513 1511 1509 1507 1505 1497 1493 1492 1490 1487 1487 1484 1480 1479
1559 1559 1560 1560 1561 1560 1559 1559 1558 1557 1556 1555 1554 1552 1550 1547 1544 1541 1537 1534 1531 1529 1526 1525 1522 1519 1516 1514 1514 1511 1509 1506 1502 1500 1496 1493 1490 1486 1482 1482 1480 1476 1475